map of CAY home
Great Circle Mapper logo
CAY - Airport
Location
City:  Cayenne, French Guiana
Name:Rochambeau
ICAO / IATA:SOCA / CAY

Details
Type:Airport (Aerodrome, Airfield)
Latitude:449'11"N (4.819722)
Longitude:5221'43"W (-52.361943)
Elevation:26 ft (8 m)
Runways:1
Longest:10499 × 148 ft (3200 × 45 m), paved

Time
Time Zone:UTC-3
Local Time:

Weather
METAR:SOCA 011800Z AUTO 02004KT 320V070 9999 FEW027/// SCT068/// BKN086/// ///CB 27/25 Q1012
TAF:SOCA 011700Z 0118/0218 10012KT 9999 FEW040 PROB30
TEMPO 0118/0121 3000 SHRA FEW018TCU
BECMG 0122/0124 VRB02KT PROB30
TEMPO 0206/0211 1 500 BCFG BKN001

Related Locations
Nearby:
Farthest:AMQ: 12350 mi / 19875 km
Ambon [Pattimura], ID

Find:

   beyond  
but within

Other Information
Maps:
NOTAMs:
Links:
Sources:

  
flag of French Guiana   

Sectional Chart

Flight Planning
at skyvector.com

Satellite Image

Google Maps Satellite View

 

Copyright © 2004-2014 Karl L. Swartz. All rights reserved.
The Great Circle Mapper name and logo are trademarks of the Great Circle Mapper.
All other trademarks mentioned herein belong to their respective owners.
Please see credits for attibutions and further copyright information.

  Follow gcmap on Facebook Follow gcmap on Twitter

hCard Microformat

Geo Microformat